K4JOZ Weather Reports


time (UTC)temp
C
wind
direction
speed
KPH
gust
KPH
rain 1hr
cm
rain 24hr
cm
rain mn
cm
humidity
%
barometer
mb
20260906083029 20 0 0.0 0.0 0.00 0.00 0.00 1 1009.4
20260906081529 20 0 0.0 0.0 0.00 0.00 0.00 1 1009.4
20260906080029 20 0 0.0 0.0 0.00 0.00 0.00 1 1009.3
20260906074529 20 0 0.0 0.0 0.00 0.00 0.00 1 1009.1
20260906073029 20 68 1.6 3.2 0.00 0.00 0.00 1 1008.9
20260906071529 20 0 0.0 0.0 0.00 0.00 0.00 1 1009.0
20260906070029 20 0 0.0 0.0 0.00 0.00 0.00 1 1009.4
20260906064529 20 0 0.0 0.0 0.00 0.00 0.00 1 1009.7
20260906063029 20 0 0.0 1.6 0.00 0.00 0.00 1 1009.9
20260906061529 20 0 0.0 0.0 0.00 0.00 0.00 1 1009.9
20260906060029 21 0 0.0 0.0 0.00 0.00 0.00 1 1010.1
20260906054529 21 68 3.2 3.2 0.00 0.00 0.00 1 1010.2
20260906053029 21 0 0.0 0.0 0.00 0.00 0.00 1 1010.2
20260906051529 21 68 1.6 3.2 0.00 0.00 0.00 1 1010.2
20260906050029 21 0 0.0 0.0 0.00 0.00 0.00 1 1010.2
20260906044529 21 0 0.0 0.0 0.00 0.00 0.00 1 1010.3
20260906043029 21 68 1.6 1.6 0.00 0.00 0.00 1 1010.0
20260906041529 21 0 0.0 3.2 0.00 0.00 0.00 1 1010.1
20260906040029 21 0 0.0 0.0 0.00 0.00 0.00 1 1010.2
20260906034529 21 68 1.6 1.6 0.00 0.00 0.00 1 1010.4
20260906033029 21 68 3.2 3.2 0.00 0.00 0.00 1 1010.2
20260906031529 21 0 0.0 0.0 0.00 0.00 0.00 1 1010.1
20260906030029 21 68 3.2 3.2 0.00 0.00 0.00 1 1010.2
20260906024529 22 68 1.6 1.6 0.00 0.00 0.00 1 1010.1
20260906023029 22 68 1.6 1.6 0.00 0.00 0.00 1 1010.1
20260906021529 22 0 0.0 0.0 0.00 0.00 0.00 1 1010.2
20260906020029 22 68 3.2 3.2 0.00 0.00 0.00 1 1010.3
20260906014529 22 0 0.0 0.0 0.00 0.00 0.00 1 1010.0
20260906013029 22 167 4.8 4.8 0.00 0.00 0.00 1 1009.9
20260906011529 22 0 0.0 0.0 0.00 0.00 0.00 1 1009.4
20260906010029 23 0 0.0 0.0 0.00 0.00 0.00 1 1009.2
20260906004529 23 167 1.6 1.6 0.00 0.00 0.00 1 1009.2
20260906003029 24 0 0.0 0.0 0.00 0.00 0.00 1 1009.2
20260906001529 25 167 1.6 1.6 0.00 0.00 0.00 1 1009.0
20260906000029 26 167 4.8 4.8 0.00 0.00 0.00 1 1008.9
20260905234529 26 0 0.0 0.0 0.00 0.00 0.00 1 1008.8
20260905233029 27 0 0.0 1.6 0.00 0.00 0.00 16 1008.8
20260905231529 28 167 1.6 1.6 0.00 0.00 0.00 23 1008.7
20260905230029 29 167 4.8 4.8 0.00 0.00 0.00 43 1008.4
20260905224529 30 167 1.6 4.8 0.00 0.00 0.00 54 1008.6
20260905223029 31 168 1.6 3.2 0.00 0.00 0.00 55 1008.7
20260905221529 31 169 1.6 1.6 0.00 0.00 0.00 55 1008.6
20260905220029 31 166 4.8 6.4 0.00 0.00 0.00 55 1008.8
20260905214529 31 0 0.0 1.6 0.00 0.00 0.00 55 1008.8
20260905213029 31 190 9.7 9.7 0.00 0.00 0.00 54 1008.9
20260905211529 31 269 3.2 3.2 0.00 0.00 0.00 54 1009.0
20260905210029 31 213 6.4 8.0 0.00 0.00 0.00 55 1009.1
20260905204529 31 223 1.6 3.2 0.00 0.00 0.00 54 1009.1
20260905203029 30 132 1.6 1.6 0.00 0.00 0.00 54 1009.2
20260905201529 30 157 1.6 3.2 0.00 0.00 0.00 55 1009.3
20260905200029 30 190 1.6 3.2 0.00 0.00 0.00 54 1009.7
20260905194529 30 124 3.2 4.8 0.00 0.00 0.00 54 1010.0
20260905193029 30 193 3.2 3.2 0.00 0.00 0.00 53 1010.1
20260905191529 30 128 4.8 6.4 0.00 0.00 0.00 54 1010.3
20260905190029 29 54 8.0 14.5 0.00 0.00 0.00 50 1010.5
20260905184529 28 63 3.2 4.8 0.00 0.00 0.00 46 1010.8
20260905183029 28 128 8.0 14.5 0.00 0.00 0.00 52 1011.0
20260905181529 28 69 6.4 6.4 0.00 0.00 0.00 48 1011.6
20260905180029 28 130 11.3 11.3 0.00 0.00 0.00 49 1011.8
20260905174529 27 115 4.8 6.4 0.00 0.00 0.00 36 1012.1
20260905173029 26 114 9.7 11.3 0.00 0.00 0.00 27 1012.5
20260905171529 26 121 11.3 11.3 0.00 0.00 0.00 21 1012.9
20260905170029 25 55 9.7 14.5 0.00 0.00 0.00 1 1012.9
20260905164529 25 105 1.6 4.8 0.00 0.00 0.00 5 1012.6
20260905163029 25 0 0.0 3.2 0.00 0.00 0.00 1 1012.3
20260905161529 26 347 19.3 20.9 0.00 0.00 0.00 1 1012.1
20260905160029 28 327 9.7 16.1 0.00 0.00 0.00 1 1012.5
20260905154529 30 252 3.2 4.8 0.00 0.00 0.00 2 1012.2
20260905153029 30 0 0.0 3.2 0.00 0.00 0.00 1 1012.0
20260905151529 28 161 3.2 3.2 0.00 0.00 0.00 1 1011.7
20260905150029 28 206 3.2 4.8 0.00 0.00 0.00 1 1011.7
20260905144529 27 190 3.2 3.2 0.00 0.00 0.00 1 1011.9
20260905143029 27 173 1.6 3.2 0.00 0.00 0.00 1 1012.0
20260905141529 27 169 3.2 6.4 0.00 0.00 0.00 1 1012.1
20260905140029 26 165 3.2 3.2 0.00 0.00 0.00 1 1012.1
20260905134529 25 0 0.0 3.2 0.00 0.00 0.00 1 1012.1
20260905133029 24 165 3.2 6.4 0.00 0.00 0.00 1 1012.1
20260905131529 24 239 4.8 4.8 0.00 0.00 0.00 1 1012.3
20260905130029 24 349 1.6 1.6 0.00 0.00 0.00 1 1012.5
20260905124529 23 344 3.2 3.2 0.00 0.00 0.00 1 1012.7
20260905123029 22 0 0.0 0.0 0.00 0.00 0.00 1 1012.6
20260905121529 21 0 0.0 0.0 0.00 0.00 0.00 1 1012.6
20260905120029 21 0 0.0 0.0 0.00 0.00 0.00 1 1012.3
20260905114529 20 0 0.0 0.0 0.00 0.00 0.00 1 1012.1
20260905113029 20 0 0.0 0.0 0.00 0.00 0.00 1 1011.9
20260905111529 20 0 0.0 0.0 0.00 0.00 0.00 1 1011.7
20260905110029 20 0 0.0 0.0 0.00 0.00 0.00 1 1011.5
20260905104529 20 0 0.0 0.0 0.00 0.00 0.00 1 1011.5
20260905103029 20 0 0.0 0.0 0.00 0.00 0.00 1 1011.4
20260905101529 20 0 0.0 0.0 0.00 0.00 0.00 1 1011.3
20260905100029 20 341 1.6 1.6 0.00 0.00 0.00 1 1011.4
20260905094529 20 341 1.6 3.2 0.00 0.00 0.00 1 1011.3
20260905093029 20 0 0.0 0.0 0.00 0.00 0.00 1 1011.0
20260905091529 20 340 1.6 3.2 0.00 0.00 0.00 1 1010.9
20260905090029 20 0 0.0 0.0 0.00 0.00 0.00 1 1011.0
20260905084529 20 0 0.0 0.0 0.00 0.00 0.00 1 1011.1